Year,Month,Day,Hour,Minute,Value (Times are PST for temperature in C)
2017,06,24,00,00,15.10
2017,06,24,00,01,15.10
2017,06,24,00,02,15.10
2017,06,24,00,03,15.10
2017,06,24,00,04,15.10
2017,06,24,00,05,15.00
2017,06,24,00,06,15.00
2017,06,24,00,07,14.90
2017,06,24,00,08,14.90
2017,06,24,00,09,14.90
2017,06,24,00,10,14.80
2017,06,24,00,11,14.80
2017,06,24,00,12,14.80
2017,06,24,00,13,14.80
2017,06,24,00,14,14.70
2017,06,24,00,15,14.70
2017,06,24,00,16,14.70
2017,06,24,00,17,14.60
2017,06,24,00,18,14.60
2017,06,24,00,19,14.60
2017,06,24,00,20,14.60
2017,06,24,00,21,14.60
2017,06,24,00,22,14.60
2017,06,24,00,23,14.50
2017,06,24,00,24,14.50
2017,06,24,00,25,14.50
2017,06,24,00,26,14.50
2017,06,24,00,27,14.50
2017,06,24,00,28,14.50
2017,06,24,00,29,14.50
2017,06,24,00,30,14.40
2017,06,24,00,31,14.40
2017,06,24,00,32,14.30
2017,06,24,00,33,14.30
2017,06,24,00,34,14.30
2017,06,24,00,35,14.30
2017,06,24,00,36,14.30
2017,06,24,00,37,14.30
2017,06,24,00,38,14.30
2017,06,24,00,39,14.30
2017,06,24,00,40,14.20
2017,06,24,00,41,14.20
2017,06,24,00,42,14.20
2017,06,24,00,43,14.10
2017,06,24,00,44,14.10
2017,06,24,00,45,14.10
2017,06,24,00,46,14.10
2017,06,24,00,47,14.10
2017,06,24,00,48,14.10
2017,06,24,00,49,14.10
2017,06,24,00,50,14.10
2017,06,24,00,51,14.10
2017,06,24,00,52,14.00
2017,06,24,00,53,14.00
2017,06,24,00,54,14.00
2017,06,24,00,55,14.00
2017,06,24,00,56,14.00
2017,06,24,00,57,14.00
2017,06,24,00,58,14.00
2017,06,24,00,59,14.10
2017,06,24,01,00,14.00
2017,06,24,01,01,14.00
2017,06,24,01,02,14.00
2017,06,24,01,03,14.00
2017,06,24,01,04,14.00
2017,06,24,01,05,14.00
2017,06,24,01,06,14.00
2017,06,24,01,07,13.90
2017,06,24,01,08,13.90
2017,06,24,01,09,13.90
2017,06,24,01,10,13.90
2017,06,24,01,11,13.80
2017,06,24,01,12,13.80
2017,06,24,01,13,13.80
2017,06,24,01,14,13.80
2017,06,24,01,15,13.80
2017,06,24,01,16,13.80
2017,06,24,01,17,13.70
2017,06,24,01,18,13.70
2017,06,24,01,19,13.60
2017,06,24,01,20,13.60
2017,06,24,01,21,13.50
2017,06,24,01,22,13.50
2017,06,24,01,23,13.50
2017,06,24,01,24,13.40
2017,06,24,01,25,13.40
2017,06,24,01,26,13.40
2017,06,24,01,27,13.40
2017,06,24,01,28,13.40
2017,06,24,01,29,13.40
2017,06,24,01,30,13.40
2017,06,24,01,31,13.40
2017,06,24,01,32,13.30
2017,06,24,01,33,13.30
2017,06,24,01,34,13.30
2017,06,24,01,35,13.30
2017,06,24,01,36,13.30
2017,06,24,01,37,13.20
2017,06,24,01,38,13.20
2017,06,24,01,39,13.20
2017,06,24,01,40,13.20
2017,06,24,01,41,13.20
2017,06,24,01,42,13.20
2017,06,24,01,43,13.10
2017,06,24,01,44,13.10
2017,06,24,01,45,13.10
2017,06,24,01,46,13.10
2017,06,24,01,47,13.00
2017,06,24,01,48,13.00
2017,06,24,01,49,12.90
2017,06,24,01,50,12.90
2017,06,24,01,51,12.90
2017,06,24,01,52,12.80
2017,06,24,01,53,12.80
2017,06,24,01,54,12.70
2017,06,24,01,55,12.70
2017,06,24,01,56,12.60
2017,06,24,01,57,12.60
2017,06,24,01,58,12.60
2017,06,24,01,59,12.60
2017,06,24,02,00,12.50
2017,06,24,02,01,12.50
2017,06,24,02,02,12.50
2017,06,24,02,03,12.50
2017,06,24,02,04,12.40
2017,06,24,02,05,12.40
2017,06,24,02,06,12.40
2017,06,24,02,07,12.40
2017,06,24,02,08,12.30
2017,06,24,02,09,12.30
2017,06,24,02,10,12.30
2017,06,24,02,11,12.30
2017,06,24,02,12,12.30
2017,06,24,02,13,12.30
2017,06,24,02,14,12.30
2017,06,24,02,15,12.30
2017,06,24,02,16,12.30
2017,06,24,02,17,12.30
2017,06,24,02,18,12.20
2017,06,24,02,19,12.20
2017,06,24,02,20,12.20
2017,06,24,02,21,12.20
2017,06,24,02,22,12.20
2017,06,24,02,23,12.20
2017,06,24,02,24,12.20
2017,06,24,02,25,12.20
2017,06,24,02,26,12.10
2017,06,24,02,27,12.10
2017,06,24,02,28,12.00
2017,06,24,02,29,12.00
2017,06,24,02,30,12.00
2017,06,24,02,31,11.90
2017,06,24,02,32,11.90
2017,06,24,02,33,11.80
2017,06,24,02,34,11.80
2017,06,24,02,35,11.80
2017,06,24,02,36,11.80
2017,06,24,02,37,11.70
2017,06,24,02,38,11.70
2017,06,24,02,39,11.70
2017,06,24,02,40,11.70
2017,06,24,02,41,11.70
2017,06,24,02,42,11.70
2017,06,24,02,43,11.70
2017,06,24,02,44,11.60
2017,06,24,02,45,11.60
2017,06,24,02,46,11.60
2017,06,24,02,47,11.60
2017,06,24,02,48,11.60
2017,06,24,02,49,11.50
2017,06,24,02,50,11.50
2017,06,24,02,51,11.50
2017,06,24,02,52,11.50
2017,06,24,02,53,11.50
2017,06,24,02,54,11.60
2017,06,24,02,55,11.60
2017,06,24,02,56,11.60
2017,06,24,02,57,11.70
2017,06,24,02,58,11.70
2017,06,24,02,59,11.70
2017,06,24,03,00,11.70
2017,06,24,03,01,11.70
2017,06,24,03,02,11.70
2017,06,24,03,03,11.70
2017,06,24,03,04,11.70
2017,06,24,03,05,11.70
2017,06,24,03,06,11.70
2017,06,24,03,07,11.70
2017,06,24,03,08,11.70
2017,06,24,03,09,11.70
2017,06,24,03,10,11.70
2017,06,24,03,11,11.70
2017,06,24,03,12,11.70
2017,06,24,03,13,11.70
2017,06,24,03,14,11.70
2017,06,24,03,15,11.70
2017,06,24,03,16,11.70
2017,06,24,03,17,11.70
2017,06,24,03,18,11.70
2017,06,24,03,19,11.70
2017,06,24,03,20,11.60
2017,06,24,03,21,11.60
2017,06,24,03,22,11.60
2017,06,24,03,23,11.60
2017,06,24,03,24,11.60
2017,06,24,03,25,11.60
2017,06,24,03,26,11.60
2017,06,24,03,27,11.60
2017,06,24,03,28,11.60
2017,06,24,03,29,11.60
2017,06,24,03,30,11.50
2017,06,24,03,31,11.50
2017,06,24,03,32,11.50
2017,06,24,03,33,11.40
2017,06,24,03,34,11.40
2017,06,24,03,35,11.40
2017,06,24,03,36,11.40
2017,06,24,03,37,11.40
2017,06,24,03,38,11.40
2017,06,24,03,39,11.40
2017,06,24,03,40,11.40
2017,06,24,03,41,11.40
2017,06,24,03,42,11.40
2017,06,24,03,43,11.40
2017,06,24,03,44,11.40
2017,06,24,03,45,11.40
2017,06,24,03,46,11.40
2017,06,24,03,47,11.30
2017,06,24,03,48,11.30
2017,06,24,03,49,11.30
2017,06,24,03,50,11.30
2017,06,24,03,51,11.20
2017,06,24,03,52,11.20
2017,06,24,03,53,11.10
2017,06,24,03,54,11.10
2017,06,24,03,55,11.00
2017,06,24,03,56,11.00
2017,06,24,03,57,10.90
2017,06,24,03,58,10.90
2017,06,24,03,59,10.90
2017,06,24,04,00,10.80
2017,06,24,04,01,10.80
2017,06,24,04,02,10.80
2017,06,24,04,03,10.80
2017,06,24,04,04,10.70
2017,06,24,04,05,10.70
2017,06,24,04,06,10.70
2017,06,24,04,07,10.70
2017,06,24,04,08,10.70
2017,06,24,04,09,10.70
2017,06,24,04,10,10.70
2017,06,24,04,11,10.70
2017,06,24,04,12,10.70
2017,06,24,04,13,10.70
2017,06,24,04,14,10.60
2017,06,24,04,15,10.60
2017,06,24,04,16,10.60
2017,06,24,04,17,10.60
2017,06,24,04,18,10.60
2017,06,24,04,19,10.60
2017,06,24,04,20,10.60
2017,06,24,04,21,10.60
2017,06,24,04,22,10.60
2017,06,24,04,23,10.60
2017,06,24,04,24,10.60
2017,06,24,04,25,10.70
2017,06,24,04,26,10.70
2017,06,24,04,27,10.70
2017,06,24,04,28,10.70
2017,06,24,04,29,10.70
2017,06,24,04,30,10.80
2017,06,24,04,31,10.80
2017,06,24,04,32,10.80
2017,06,24,04,33,10.70
2017,06,24,04,34,10.70
2017,06,24,04,35,10.70
2017,06,24,04,36,10.70
2017,06,24,04,37,10.70
2017,06,24,04,38,10.70
2017,06,24,04,39,10.70
2017,06,24,04,40,10.70
2017,06,24,04,41,10.70
2017,06,24,04,42,10.70
2017,06,24,04,43,10.70
2017,06,24,04,44,10.60
2017,06,24,04,45,10.60
2017,06,24,04,46,10.60
2017,06,24,04,47,10.60
2017,06,24,04,48,10.70
2017,06,24,04,49,10.70
2017,06,24,04,50,10.70
2017,06,24,04,51,10.70
2017,06,24,04,52,10.70
2017,06,24,04,53,10.70
2017,06,24,04,54,10.70
2017,06,24,04,55,10.80
2017,06,24,04,56,10.80
2017,06,24,04,57,10.80
2017,06,24,04,58,10.80
2017,06,24,04,59,10.80
2017,06,24,05,00,10.80
2017,06,24,05,01,10.80
2017,06,24,05,02,10.80
2017,06,24,05,03,10.80
2017,06,24,05,04,10.80
2017,06,24,05,05,10.70
2017,06,24,05,06,10.70
2017,06,24,05,07,10.70
2017,06,24,05,08,10.70
2017,06,24,05,09,10.70
2017,06,24,05,10,10.70
2017,06,24,05,11,10.60
2017,06,24,05,12,10.60
2017,06,24,05,13,10.60
2017,06,24,05,14,10.60
2017,06,24,05,15,10.60
2017,06,24,05,16,10.60
2017,06,24,05,17,10.60
2017,06,24,05,18,10.60
2017,06,24,05,19,10.60
2017,06,24,05,20,10.50
2017,06,24,05,21,10.50
2017,06,24,05,22,10.40
2017,06,24,05,23,10.40
2017,06,24,05,24,10.40
2017,06,24,05,25,10.40
2017,06,24,05,26,10.40
2017,06,24,05,27,10.30
2017,06,24,05,28,10.40
2017,06,24,05,29,10.40
2017,06,24,05,30,10.40
2017,06,24,05,31,10.40
2017,06,24,05,32,10.40
2017,06,24,05,33,10.40
2017,06,24,05,34,10.40
2017,06,24,05,35,10.40
2017,06,24,05,36,10.40
2017,06,24,05,37,10.40
2017,06,24,05,38,10.30
2017,06,24,05,39,10.30
2017,06,24,05,40,10.30
2017,06,24,05,41,10.30
2017,06,24,05,42,10.30
2017,06,24,05,43,10.40
2017,06,24,05,44,10.40
2017,06,24,05,45,10.40
2017,06,24,05,46,10.40
2017,06,24,05,47,10.40
2017,06,24,05,48,10.40
2017,06,24,05,49,10.40
2017,06,24,05,50,10.40
2017,06,24,05,51,10.40
2017,06,24,05,52,10.40
2017,06,24,05,53,10.40
2017,06,24,05,54,10.40
2017,06,24,05,55,10.40
2017,06,24,05,56,10.40
2017,06,24,05,57,10.40
2017,06,24,05,58,10.40
2017,06,24,05,59,10.50
2017,06,24,06,00,10.50
2017,06,24,06,01,10.60
2017,06,24,06,02,10.70
2017,06,24,06,03,10.70
2017,06,24,06,04,10.80
2017,06,24,06,05,10.80
2017,06,24,06,06,10.90
2017,06,24,06,07,11.00
2017,06,24,06,08,11.10
2017,06,24,06,09,11.20
2017,06,24,06,10,11.30
2017,06,24,06,11,11.40
2017,06,24,06,12,11.50
2017,06,24,06,13,11.60
2017,06,24,06,14,11.60
2017,06,24,06,15,11.70
2017,06,24,06,16,11.80
2017,06,24,06,17,11.80
2017,06,24,06,18,11.90
2017,06,24,06,19,12.00
2017,06,24,06,20,12.10
2017,06,24,06,21,12.20
2017,06,24,06,22,12.30
2017,06,24,06,23,12.30
2017,06,24,06,24,12.30
2017,06,24,06,25,12.30
2017,06,24,06,26,12.40
2017,06,24,06,27,12.30
2017,06,24,06,28,12.30
2017,06,24,06,29,12.30
2017,06,24,06,30,12.30
2017,06,24,06,31,12.30
2017,06,24,06,32,12.30
2017,06,24,06,33,12.40
2017,06,24,06,34,12.40
2017,06,24,06,35,12.40
2017,06,24,06,36,12.40
2017,06,24,06,37,12.40
2017,06,24,06,38,12.50
2017,06,24,06,39,12.60
2017,06,24,06,40,12.70
2017,06,24,06,41,12.70
2017,06,24,06,42,12.80
2017,06,24,06,43,12.90
2017,06,24,06,44,13.00
2017,06,24,06,45,13.10
2017,06,24,06,46,13.20
2017,06,24,06,47,13.30
2017,06,24,06,48,13.40
2017,06,24,06,49,13.50
2017,06,24,06,50,13.60
2017,06,24,06,51,13.60
2017,06,24,06,52,13.70
2017,06,24,06,53,13.80
2017,06,24,06,54,13.90
2017,06,24,06,55,14.00
2017,06,24,06,56,14.10
2017,06,24,06,57,14.20
2017,06,24,06,58,14.30
2017,06,24,06,59,14.30
2017,06,24,07,00,14.30
2017,06,24,07,01,14.40
2017,06,24,07,02,14.40
2017,06,24,07,03,14.40
2017,06,24,07,04,14.40
2017,06,24,07,05,14.50
2017,06,24,07,06,14.50
2017,06,24,07,07,14.60
2017,06,24,07,08,14.60
2017,06,24,07,09,14.60
2017,06,24,07,10,14.60
2017,06,24,07,11,14.60
2017,06,24,07,12,14.70
2017,06,24,07,13,14.70
2017,06,24,07,14,14.70
2017,06,24,07,15,14.80
2017,06,24,07,16,14.90
2017,06,24,07,17,14.90
2017,06,24,07,18,15.00
2017,06,24,07,19,15.00
2017,06,24,07,20,15.10
2017,06,24,07,21,15.10
2017,06,24,07,22,15.10
2017,06,24,07,23,15.20
2017,06,24,07,24,15.20
2017,06,24,07,25,15.30
2017,06,24,07,26,15.40
2017,06,24,07,27,15.40
2017,06,24,07,28,15.40
2017,06,24,07,29,15.50
2017,06,24,07,30,15.50
2017,06,24,07,31,15.60
2017,06,24,07,32,15.70
2017,06,24,07,33,15.70
2017,06,24,07,34,15.80
2017,06,24,07,35,15.90
2017,06,24,07,36,16.00
2017,06,24,07,37,16.10
2017,06,24,07,38,16.20
2017,06,24,07,39,16.30
2017,06,24,07,40,16.30
2017,06,24,07,41,16.40
2017,06,24,07,42,16.40
2017,06,24,07,43,16.40
2017,06,24,07,44,16.50
2017,06,24,07,45,16.50
2017,06,24,07,46,16.60
2017,06,24,07,47,16.70
2017,06,24,07,48,16.80
2017,06,24,07,49,16.90
2017,06,24,07,50,17.00
2017,06,24,07,51,17.10
2017,06,24,07,52,17.30
2017,06,24,07,53,17.30
2017,06,24,07,54,17.40
2017,06,24,07,55,17.40
2017,06,24,07,56,17.50
2017,06,24,07,57,17.60
2017,06,24,07,58,17.60
2017,06,24,07,59,17.70
2017,06,24,08,00,17.70
2017,06,24,08,01,17.80
2017,06,24,08,02,17.80
2017,06,24,08,03,17.90
2017,06,24,08,04,18.00
2017,06,24,08,05,18.00
2017,06,24,08,06,18.10
2017,06,24,08,07,18.20
2017,06,24,08,08,18.30
2017,06,24,08,09,18.30
2017,06,24,08,10,18.40
2017,06,24,08,11,18.40
2017,06,24,08,12,18.50
2017,06,24,08,13,18.50
2017,06,24,08,14,18.60
2017,06,24,08,15,18.60
2017,06,24,08,16,18.70
2017,06,24,08,17,18.70
2017,06,24,08,18,18.70
2017,06,24,08,19,18.80
2017,06,24,08,20,18.80
2017,06,24,08,21,18.90
2017,06,24,08,22,18.90
2017,06,24,08,23,19.00
2017,06,24,08,24,19.00
2017,06,24,08,25,19.10
2017,06,24,08,26,19.20
2017,06,24,08,27,19.20
2017,06,24,08,28,19.30
2017,06,24,08,29,19.30
2017,06,24,08,30,19.40
2017,06,24,08,31,19.50
2017,06,24,08,32,19.50
2017,06,24,08,33,19.60
2017,06,24,08,34,19.70
2017,06,24,08,35,19.70
2017,06,24,08,36,19.80
2017,06,24,08,37,19.90
2017,06,24,08,38,20.00
2017,06,24,08,39,20.10
2017,06,24,08,40,20.20
2017,06,24,08,41,20.30
2017,06,24,08,42,20.30
2017,06,24,08,43,20.40
2017,06,24,08,44,20.40
2017,06,24,08,45,20.50
2017,06,24,08,46,20.50
2017,06,24,08,47,20.60
2017,06,24,08,48,20.70
2017,06,24,08,49,20.80
2017,06,24,08,50,20.80
2017,06,24,08,51,20.90
2017,06,24,08,52,21.00
2017,06,24,08,53,21.10
2017,06,24,08,54,21.20
2017,06,24,08,55,21.40
2017,06,24,08,56,21.40
2017,06,24,08,57,21.50
2017,06,24,08,58,21.50
2017,06,24,08,59,21.60
2017,06,24,09,00,21.60
2017,06,24,09,01,21.70
2017,06,24,09,02,21.80
2017,06,24,09,03,21.80
2017,06,24,09,04,21.90
2017,06,24,09,05,22.00
2017,06,24,09,06,22.00
2017,06,24,09,07,22.10
2017,06,24,09,08,22.20
2017,06,24,09,09,22.30
2017,06,24,09,10,22.30
2017,06,24,09,11,22.30
2017,06,24,09,12,22.30
2017,06,24,09,13,22.30
2017,06,24,09,14,22.30
2017,06,24,09,15,22.30
2017,06,24,09,16,22.40
2017,06,24,09,17,22.50
2017,06,24,09,18,22.50
2017,06,24,09,19,22.60
2017,06,24,09,20,22.60
2017,06,24,09,21,22.60
2017,06,24,09,22,22.60
2017,06,24,09,23,22.60
2017,06,24,09,24,22.60
2017,06,24,09,25,22.60
2017,06,24,09,26,22.70
2017,06,24,09,27,22.70
2017,06,24,09,28,22.80
2017,06,24,09,29,22.90
2017,06,24,09,30,22.90
2017,06,24,09,31,23.00
2017,06,24,09,32,23.20
2017,06,24,09,33,23.30
2017,06,24,09,34,23.50
2017,06,24,09,35,23.60
2017,06,24,09,36,23.70
2017,06,24,09,37,23.70
2017,06,24,09,38,23.70
2017,06,24,09,39,23.70
2017,06,24,09,40,23.80
2017,06,24,09,41,23.80
2017,06,24,09,42,23.80
2017,06,24,09,43,23.80
2017,06,24,09,44,23.80
2017,06,24,09,45,23.80
2017,06,24,09,46,23.90
2017,06,24,09,47,23.90
2017,06,24,09,48,24.00
2017,06,24,09,49,24.10
2017,06,24,09,50,24.10
2017,06,24,09,51,24.20
2017,06,24,09,52,24.20
2017,06,24,09,53,24.30
2017,06,24,09,54,24.30
2017,06,24,09,55,24.30
2017,06,24,09,56,24.40
2017,06,24,09,57,24.40
2017,06,24,09,58,24.40
2017,06,24,09,59,24.40
2017,06,24,10,00,24.40
2017,06,24,10,01,24.30
2017,06,24,10,02,24.30
2017,06,24,10,03,24.30
2017,06,24,10,04,24.30
2017,06,24,10,05,24.30
2017,06,24,10,06,24.40
2017,06,24,10,07,24.50
2017,06,24,10,08,24.60
2017,06,24,10,09,24.80
2017,06,24,10,10,24.90
2017,06,24,10,11,25.00
2017,06,24,10,12,25.00
2017,06,24,10,13,25.10
2017,06,24,10,14,25.20
2017,06,24,10,15,25.30
2017,06,24,10,16,25.40
2017,06,24,10,17,25.40
2017,06,24,10,18,25.40
2017,06,24,10,19,25.50
2017,06,24,10,20,25.40
2017,06,24,10,21,25.30
2017,06,24,10,22,25.30
2017,06,24,10,23,25.30
2017,06,24,10,24,25.30
2017,06,24,10,25,25.30
2017,06,24,10,26,25.30
2017,06,24,10,27,25.30
2017,06,24,10,28,25.30
2017,06,24,10,29,25.20
2017,06,24,10,30,25.00
2017,06,24,10,31,24.90
2017,06,24,10,32,24.70
2017,06,24,10,33,24.60
2017,06,24,10,34,24.60
2017,06,24,10,35,24.60
2017,06,24,10,36,24.60
2017,06,24,10,37,24.70
2017,06,24,10,38,24.80
2017,06,24,10,39,24.80
2017,06,24,10,40,24.80
2017,06,24,10,41,24.90
2017,06,24,10,42,24.90
2017,06,24,10,43,24.90
2017,06,24,10,44,24.90
2017,06,24,10,45,24.90
2017,06,24,10,46,24.90
2017,06,24,10,47,24.80
2017,06,24,10,48,24.80
2017,06,24,10,49,24.80
2017,06,24,10,50,24.90
2017,06,24,10,51,25.00
2017,06,24,10,52,25.10
2017,06,24,10,53,25.20
2017,06,24,10,54,25.20
2017,06,24,10,55,25.30
2017,06,24,10,56,25.30
2017,06,24,10,57,25.30
2017,06,24,10,58,25.30
2017,06,24,10,59,25.30
2017,06,24,11,00,25.30
2017,06,24,11,01,25.30
2017,06,24,11,02,25.40
2017,06,24,11,03,25.50
2017,06,24,11,04,25.60
2017,06,24,11,05,25.70
2017,06,24,11,06,25.80
2017,06,24,11,07,25.80
2017,06,24,11,08,25.80
2017,06,24,11,09,25.80
2017,06,24,11,10,25.80
2017,06,24,11,11,25.90
2017,06,24,11,12,25.90
2017,06,24,11,13,26.10
2017,06,24,11,14,26.20
2017,06,24,11,15,26.40
2017,06,24,11,16,26.60
2017,06,24,11,17,26.70
2017,06,24,11,18,26.80
2017,06,24,11,19,26.90
2017,06,24,11,20,27.00
2017,06,24,11,21,27.10
2017,06,24,11,22,27.20
2017,06,24,11,23,27.30
2017,06,24,11,24,27.40
2017,06,24,11,25,27.40
2017,06,24,11,26,27.40
2017,06,24,11,27,27.30
2017,06,24,11,28,27.20
2017,06,24,11,29,27.20
2017,06,24,11,30,27.10
2017,06,24,11,31,27.10
2017,06,24,11,32,27.10
2017,06,24,11,33,27.00
2017,06,24,11,34,26.80
2017,06,24,11,35,26.60
2017,06,24,11,36,26.30
2017,06,24,11,37,26.20
2017,06,24,11,38,26.10
2017,06,24,11,39,26.20
2017,06,24,11,40,26.20
2017,06,24,11,41,26.20
2017,06,24,11,42,26.30
2017,06,24,11,43,26.30
2017,06,24,11,44,26.30
2017,06,24,11,45,26.30
2017,06,24,11,46,26.30
2017,06,24,11,47,26.20
2017,06,24,11,48,26.20
2017,06,24,11,49,26.10
2017,06,24,11,50,26.10
2017,06,24,11,51,26.10
2017,06,24,11,52,26.10
2017,06,24,11,53,26.00
2017,06,24,11,54,26.00
2017,06,24,11,55,26.00
2017,06,24,11,56,25.90
2017,06,24,11,57,25.90
2017,06,24,11,58,25.80
2017,06,24,11,59,25.90
2017,06,24,12,00,25.90
2017,06,24,12,01,26.00
2017,06,24,12,02,26.10
2017,06,24,12,03,26.20
2017,06,24,12,04,26.30
2017,06,24,12,05,26.50
2017,06,24,12,06,26.50
2017,06,24,12,07,26.50
2017,06,24,12,08,26.50
2017,06,24,12,09,26.50
2017,06,24,12,10,26.60
2017,06,24,12,11,26.70
2017,06,24,12,12,26.70
2017,06,24,12,13,26.80
2017,06,24,12,14,26.80
2017,06,24,12,15,26.90
2017,06,24,12,16,26.90
2017,06,24,12,17,26.90
2017,06,24,12,18,26.90
2017,06,24,12,19,26.90
2017,06,24,12,20,26.80
2017,06,24,12,21,26.80
2017,06,24,12,22,26.80
2017,06,24,12,23,26.80
2017,06,24,12,24,26.90
2017,06,24,12,25,26.90
2017,06,24,12,26,27.00
2017,06,24,12,27,27.00
2017,06,24,12,28,27.00
2017,06,24,12,29,27.10
2017,06,24,12,30,27.10
2017,06,24,12,31,27.10
2017,06,24,12,32,27.20
2017,06,24,12,33,27.20
2017,06,24,12,34,27.20
2017,06,24,12,35,27.20
2017,06,24,12,36,27.20
2017,06,24,12,37,27.20
2017,06,24,12,38,27.20
2017,06,24,12,39,27.20
2017,06,24,12,40,27.30
2017,06,24,12,41,27.30
2017,06,24,12,42,27.40
2017,06,24,12,43,27.40
2017,06,24,12,44,27.40
2017,06,24,12,45,27.40
2017,06,24,12,46,27.50
2017,06,24,12,47,27.60
2017,06,24,12,48,27.50
2017,06,24,12,49,27.40
2017,06,24,12,50,27.30
2017,06,24,12,51,27.40
2017,06,24,12,52,27.50
2017,06,24,12,53,27.60
2017,06,24,12,54,27.60
2017,06,24,12,55,27.50
2017,06,24,12,56,27.40
2017,06,24,12,57,27.30
2017,06,24,12,58,27.30
2017,06,24,12,59,27.30
2017,06,24,13,00,27.30
2017,06,24,13,01,27.30
2017,06,24,13,02,27.20
2017,06,24,13,03,27.20
2017,06,24,13,04,27.20
2017,06,24,13,05,27.20
2017,06,24,13,06,27.30
2017,06,24,13,07,27.40
2017,06,24,13,08,27.50
2017,06,24,13,09,27.60
2017,06,24,13,10,27.60
2017,06,24,13,11,27.70
2017,06,24,13,12,27.90
2017,06,24,13,13,28.00
2017,06,24,13,14,28.20
2017,06,24,13,15,28.20
2017,06,24,13,16,28.20
2017,06,24,13,17,28.20
2017,06,24,13,18,28.30
2017,06,24,13,19,28.30
2017,06,24,13,20,28.40
2017,06,24,13,21,28.50
2017,06,24,13,22,28.60
2017,06,24,13,23,28.70
2017,06,24,13,24,28.80
2017,06,24,13,25,28.70
2017,06,24,13,26,28.70
2017,06,24,13,27,28.70
2017,06,24,13,28,28.70
2017,06,24,13,29,28.70
2017,06,24,13,30,28.70
2017,06,24,13,31,28.60
2017,06,24,13,32,28.40
2017,06,24,13,33,28.30
2017,06,24,13,34,28.20
2017,06,24,13,35,28.20
2017,06,24,13,36,28.20
2017,06,24,13,37,28.30
2017,06,24,13,38,28.50
2017,06,24,13,39,28.50
2017,06,24,13,40,28.50
2017,06,24,13,41,28.50
2017,06,24,13,42,28.50
2017,06,24,13,43,28.40
2017,06,24,13,44,28.40
2017,06,24,13,45,28.30
2017,06,24,13,46,28.30
2017,06,24,13,47,28.30
2017,06,24,13,48,28.30
2017,06,24,13,49,28.30
2017,06,24,13,50,28.30
2017,06,24,13,51,28.30
2017,06,24,13,52,28.40
2017,06,24,13,53,28.40
2017,06,24,13,54,28.50
2017,06,24,13,55,28.50
2017,06,24,13,56,28.60
2017,06,24,13,57,28.70
2017,06,24,13,58,28.80
2017,06,24,13,59,28.80
2017,06,24,14,00,28.80
2017,06,24,14,01,28.80
2017,06,24,14,02,28.80
2017,06,24,14,03,28.80
2017,06,24,14,04,28.90
2017,06,24,14,05,28.90
2017,06,24,14,06,29.00
2017,06,24,14,07,29.10
2017,06,24,14,08,29.20
2017,06,24,14,09,29.20
2017,06,24,14,10,29.30
2017,06,24,14,11,29.30
2017,06,24,14,12,29.20
2017,06,24,14,13,29.20
2017,06,24,14,14,29.30
2017,06,24,14,15,29.20
2017,06,24,14,16,29.20
2017,06,24,14,17,29.30
2017,06,24,14,18,29.20
2017,06,24,14,19,29.10
2017,06,24,14,20,29.10
2017,06,24,14,21,29.00
2017,06,24,14,22,29.00
2017,06,24,14,23,28.90
2017,06,24,14,24,28.90
2017,06,24,14,25,29.00
2017,06,24,14,26,29.00
2017,06,24,14,27,29.00
2017,06,24,14,28,29.00
2017,06,24,14,29,29.10
2017,06,24,14,30,29.30
2017,06,24,14,31,29.40
2017,06,24,14,32,29.40
2017,06,24,14,33,29.40
2017,06,24,14,34,29.40
2017,06,24,14,35,29.50
2017,06,24,14,36,29.50
2017,06,24,14,37,29.60
2017,06,24,14,38,29.60
2017,06,24,14,39,29.60
2017,06,24,14,40,29.60
2017,06,24,14,41,29.60
2017,06,24,14,42,29.60
2017,06,24,14,43,29.60
2017,06,24,14,44,29.60
2017,06,24,14,45,29.60
2017,06,24,14,46,29.70
2017,06,24,14,47,29.60
2017,06,24,14,48,29.60
2017,06,24,14,49,29.50
2017,06,24,14,50,29.50
2017,06,24,14,51,29.50
2017,06,24,14,52,29.60
2017,06,24,14,53,29.60
2017,06,24,14,54,29.70
2017,06,24,14,55,29.70
2017,06,24,14,56,29.70
2017,06,24,14,57,29.80
2017,06,24,14,58,29.80
2017,06,24,14,59,29.80
2017,06,24,15,00,29.90
2017,06,24,15,01,30.00
2017,06,24,15,02,30.10
2017,06,24,15,03,30.10
2017,06,24,15,04,30.10
2017,06,24,15,05,30.10
2017,06,24,15,06,30.10
2017,06,24,15,07,29.90
2017,06,24,15,08,29.90
2017,06,24,15,09,29.80
2017,06,24,15,10,29.80
2017,06,24,15,11,29.90
2017,06,24,15,12,29.90
2017,06,24,15,13,30.00
2017,06,24,15,14,30.00
2017,06,24,15,15,30.10
2017,06,24,15,16,30.10
2017,06,24,15,17,30.20
2017,06,24,15,18,30.30
2017,06,24,15,19,30.40
2017,06,24,15,20,30.50
2017,06,24,15,21,30.60
2017,06,24,15,22,30.70
2017,06,24,15,23,30.90
2017,06,24,15,24,31.00
2017,06,24,15,25,31.10
2017,06,24,15,26,31.20
2017,06,24,15,27,31.20
2017,06,24,15,28,31.10
2017,06,24,15,29,31.00
2017,06,24,15,30,30.90
2017,06,24,15,31,30.90
2017,06,24,15,32,30.70
2017,06,24,15,33,30.70
2017,06,24,15,34,30.70
2017,06,24,15,35,30.70
2017,06,24,15,36,30.70
2017,06,24,15,37,30.70
2017,06,24,15,38,30.70
2017,06,24,15,39,30.80
2017,06,24,15,40,30.80
2017,06,24,15,41,30.80
2017,06,24,15,42,30.80
2017,06,24,15,43,30.80
2017,06,24,15,44,30.70
2017,06,24,15,45,30.70
2017,06,24,15,46,30.70
2017,06,24,15,47,30.80
2017,06,24,15,48,30.80
2017,06,24,15,49,30.80
2017,06,24,15,50,30.80
2017,06,24,15,51,30.80
2017,06,24,15,52,30.90
2017,06,24,15,53,31.00
2017,06,24,15,54,31.20
2017,06,24,15,55,31.30
2017,06,24,15,56,31.30
2017,06,24,15,57,31.30
2017,06,24,15,58,31.20
2017,06,24,15,59,31.10
2017,06,24,16,00,31.10
2017,06,24,16,01,31.10
2017,06,24,16,02,31.10
2017,06,24,16,03,31.10
2017,06,24,16,04,31.20
2017,06,24,16,05,31.20
2017,06,24,16,06,31.20
2017,06,24,16,07,31.10
2017,06,24,16,08,31.10
2017,06,24,16,09,31.10
2017,06,24,16,10,31.10
2017,06,24,16,11,31.10
2017,06,24,16,12,31.10
2017,06,24,16,13,31.20
2017,06,24,16,14,31.30
2017,06,24,16,15,31.40
2017,06,24,16,16,31.40
2017,06,24,16,17,31.40
2017,06,24,16,18,31.40
2017,06,24,16,19,31.30
2017,06,24,16,20,31.40
2017,06,24,16,21,31.40
2017,06,24,16,22,31.40
2017,06,24,16,23,31.30
2017,06,24,16,24,31.40
2017,06,24,16,25,31.30
2017,06,24,16,26,31.30
2017,06,24,16,27,31.30
2017,06,24,16,28,31.40
2017,06,24,16,29,31.40
2017,06,24,16,30,31.30
2017,06,24,16,31,31.30
2017,06,24,16,32,31.40
2017,06,24,16,33,31.40
2017,06,24,16,34,31.50
2017,06,24,16,35,31.60
2017,06,24,16,36,31.80
2017,06,24,16,37,31.90
2017,06,24,16,38,31.90
2017,06,24,16,39,31.70
2017,06,24,16,40,31.70
2017,06,24,16,41,31.80
2017,06,24,16,42,31.90
2017,06,24,16,43,32.00
2017,06,24,16,44,31.90
2017,06,24,16,45,31.90
2017,06,24,16,46,31.90
2017,06,24,16,47,31.90
2017,06,24,16,48,31.80
2017,06,24,16,49,31.80
2017,06,24,16,50,31.70
2017,06,24,16,51,31.80
2017,06,24,16,52,31.80
2017,06,24,16,53,31.80
2017,06,24,16,54,31.80
2017,06,24,16,55,31.80
2017,06,24,16,56,31.70
2017,06,24,16,57,31.60
2017,06,24,16,58,31.60
2017,06,24,16,59,31.60
2017,06,24,17,00,31.60
2017,06,24,17,01,31.70
2017,06,24,17,02,31.70
2017,06,24,17,03,31.70
2017,06,24,17,04,31.70
2017,06,24,17,05,31.70
2017,06,24,17,06,31.70
2017,06,24,17,07,31.70
2017,06,24,17,08,31.70
2017,06,24,17,09,31.60
2017,06,24,17,10,31.60
2017,06,24,17,11,31.70
2017,06,24,17,12,31.70
2017,06,24,17,13,31.70
2017,06,24,17,14,31.80
2017,06,24,17,15,31.90
2017,06,24,17,16,31.90
2017,06,24,17,17,31.90
2017,06,24,17,18,31.80
2017,06,24,17,19,31.80